This is the latest recevied weather packets stored in our database for station/object KD4EED. If no packets are shown the sender has not sent any weather packets the latest 10 day(s).
| Time | Temp. | Humidity | Pressure | Rain* | Wind** | Luminosity | Snow |
|---|---|---|---|---|---|---|---|
| 1777998255 | 16.67° C | 63% | 1011.8 hPa | - | - | 162 W/m² | - |
| 1777997952 | 16.67° C | 63% | 1011.6 hPa | - | - | 185 W/m² | - |
| 1777997649 | 16.67° C | 64% | 1011.6 hPa | - | - | 190 W/m² | - |
| 1777997346 | 16.67° C | 65% | 1011.4 hPa | - | - | 161 W/m² | - |
| 1777997044 | 16.11° C | 66% | 1011.5 hPa | - | - | 144 W/m² | - |
| 1777996741 | 16.11° C | 67% | 1011.4 hPa | - | - | 114 W/m² | - |
| 1777996436 | 15.56° C | 68% | 1011.6 hPa | - | - | 101 W/m² | - |
| 1777996133 | 15.56° C | 69% | 1011.6 hPa | - | - | 65 W/m² | - |
| 1777995830 | 15.56° C | 71% | 1011.4 hPa | - | - | 54 W/m² | - |
| 1777995526 | 15° C | 70% | 1011.5 hPa | - | - | 51 W/m² | - |
| 1777995223 | 15° C | 71% | 1011.5 hPa | - | - | 49 W/m² | - |
| 1777994921 | 15° C | 73% | 1011.5 hPa | - | - | 50 W/m² | - |
| 1777994618 | 14.44° C | 74% | 1011.5 hPa | - | - | 67 W/m² | - |
| 1777994317 | 14.44° C | 75% | 1011.5 hPa | - | - | 64 W/m² | - |
| 1777994014 | 13.89° C | 76% | 1011.5 hPa | - | - | 60 W/m² | - |
| 1777993712 | 13.89° C | 75% | 1011.4 hPa | - | - | 51 W/m² | - |
| 1777993409 | 13.89° C | 76% | 1011.4 hPa | - | - | 43 W/m² | - |
| 1777993103 | 13.33° C | 77% | 1011.3 hPa | - | - | 34 W/m² | - |
| 1777992802 | 13.33° C | 80% | 1011.3 hPa | - | - | 27 W/m² | - |
| 1777992499 | 13.33° C | 80% | 1011.2 hPa | - | - | 27 W/m² | - |
| 1777992197 | 13.33° C | 81% | 1011.3 hPa | - | - | 26 W/m² | - |
| 1777991893 | 12.78° C | 80% | 1011.5 hPa | - | - | 25 W/m² | - |
| 1777991591 | 12.78° C | 80% | 1011.4 hPa | - | - | 25 W/m² | - |
| 1777991288 | 12.78° C | 80% | 1011.5 hPa | - | - | 24 W/m² | - |
| 1777990986 | 12.78° C | 79% | 1011.4 hPa | - | - | 23 W/m² | - |
* Rain since midnight (hover to see other rain measurements)
** Current wind speed in m/s (hover to see current wind gust speed)